Weather History for KDIJ - April, 2013

Change the Weather History Date:

Sunday, April 21, 2013

  Actual Average (KRXE) Record (KRXE)
Temperature  
Mean Temperature 40 °F 45 °F  
Max Temperature 47 °F 58 °F 76 °F (2012)
Min Temperature 32 °F 32 °F 19 °F (2008)
Degree Days  
Heating Degree Days 26 20  
Month to date heating degree days 470  
Since 1 July heating degree days 7399  
Cooling Degree Days 0 0  
Month to date cooling degree days 0  
Year to date cooling degree days 0  
Moisture  
Dew Point 27 °F    
Average Humidity 63    
Maximum Humidity 82    
Minimum Humidity 38    
Precipitation  
Precipitation 0.00 in 0.05 in 0.24 in (1981)
Month to date precipitation 1.00  
Year to date precipitation 3.63  
Sea Level Pressure  
Sea Level Pressure 29.96 in    
Wind  
Wind Speed 12 mph (SSW)    
Max Wind Speed 26 mph    
Max Gust Speed 38 mph    
Visibility 10 miles    
Events      
T = Trace of Precipitation, MM = Missing Value Source: NWS Daily Summary

Daily Weather History Graph

Daily Weather History Graph

Search for Another Location

Airport or City:

Trip Planner

Search our weather history database for the weather conditions in past years. The results will help you decide how hot, cold, wet, or windy it might be!

Date:

Astronomy

Apr. 21, 2013 Rise Set
Actual Time 6:31 AM MDT 8:15 PM MDT
Civil Twilight 6:00 AM MDT 8:46 PM MDT
Nautical Twilight 5:23 AM MDT 9:23 PM MDT
Astronomical Twilight 4:43 AM MDT 10:03 PM MDT
Moon 3:57 PM MDT (4/21) 4:03 AM MDT (4/21)
Length of Visible Light 14h 45m
Length of Day
13h 44m
Waxing Gibbous, 80% of the Moon is Illuminated
Apr 21
Waxing Gibbous
Apr 25
Full
May 2
Last Quarter
May 9
New
May 17
First Quarter

Hourly Weather History & Observations

Time (MDT) Temp. Windchill Dew Point Humidity Pressure Visibility Wind Dir Wind Speed Gust Speed Precip Events Conditions
12:56 AM 34.0 °F 26.6 °F 29.1 °F 82% 30.01 in 10.0 mi SSE 9.2 mph - N/A   Clear
1:56 AM 32.9 °F 25.3 °F 28.0 °F 82% 30.02 in 10.0 mi SSE 9.2 mph - N/A   Clear
2:56 AM 32.9 °F 25.3 °F 28.0 °F 82% 30.04 in 10.0 mi SSE 9.2 mph - N/A   Clear
3:56 AM 32.9 °F 25.3 °F 28.0 °F 82% 30.03 in 10.0 mi SSE 9.2 mph - N/A   Clear
4:56 AM 32.9 °F 24.7 °F 28.0 °F 82% 30.05 in 10.0 mi SSE 10.4 mph - N/A   Clear
5:56 AM 34.0 °F 26.6 °F 27.1 °F 76% 30.04 in 10.0 mi SSE 9.2 mph - N/A   Clear
6:56 AM 34.0 °F 26.0 °F 27.1 °F 76% 30.05 in 10.0 mi South 10.4 mph - N/A   Clear
7:56 AM 34.9 °F 27.7 °F 27.1 °F 73% 30.06 in 10.0 mi South 9.2 mph - N/A   Clear
8:56 AM 34.9 °F 26.2 °F 27.1 °F 73% 30.05 in 10.0 mi South 12.7 mph - N/A   Partly Cloudy
9:56 AM 37.9 °F 29.6 °F 28.0 °F 68% 30.04 in 10.0 mi South 13.8 mph - N/A   Clear
10:56 AM 39.9 °F 31.4 °F 29.1 °F 65% 30.04 in 10.0 mi South 16.1 mph - N/A   Partly Cloudy
11:56 AM 41.9 °F 34.6 °F 30.0 °F 63% 30.02 in 10.0 mi South 13.8 mph - N/A   Partly Cloudy
12:56 PM 45.0 °F 38.2 °F 31.1 °F 58% 29.99 in 10.0 mi South 15.0 mph - N/A   Clear
1:56 PM 45.9 °F 39.1 °F 30.0 °F 54% 29.95 in 10.0 mi SW 16.1 mph 24.2 mph N/A   Partly Cloudy
2:56 PM 46.9 °F - 27.1 °F 46% 29.93 in 10.0 mi West 15.0 mph 24.2 mph N/A   Mostly Cloudy
3:56 PM 45.9 °F 38.5 °F 29.1 °F 52% 29.90 in 10.0 mi SSW 18.4 mph - N/A   Mostly Cloudy
5:56 PM 47.8 °F - 26.1 °F 43% 29.83 in 10.0 mi WSW 21.9 mph 29.9 mph N/A   Mostly Cloudy
6:56 PM 46.9 °F - 22.1 °F 38% 29.81 in 10.0 mi SW 21.9 mph 38.0 mph N/A   Clear
7:56 PM 45.0 °F 36.9 °F 23.0 °F 42% 29.81 in 10.0 mi WSW 20.7 mph 33.4 mph N/A   Clear
8:56 PM 43.9 °F 34.3 °F 24.1 °F 46% 29.81 in 10.0 mi WSW 26.5 mph 32.2 mph N/A   Scattered Clouds
9:56 PM 43.0 °F 34.5 °F 25.2 °F 49% 29.82 in 10.0 mi SW 19.6 mph 26.5 mph N/A   Clear
10:56 PM 41.9 °F 35.4 °F 24.1 °F 49% 29.84 in 10.0 mi West 11.5 mph - N/A   Mostly Cloudy
11:56 PM 32.9 °F 27.5 °F 27.1 °F 79% 29.88 in 10.0 mi WNW 5.8 mph - N/A   Mostly Cloudy